www.pogodaiklimat.ru

Погода и климат >> Архив погоды >> Великобритания >> London


АРХИВ ПОГОДЫ в London

Время (UTC), дата Ветер
(напр.,м/с)
 
Видим.   Явления Облачность Т
(С)
Тd
(С)
f
(%)
Тe
(С)
Тes
(С)
Комфортность P
(гПа)
Po
(гПа)
Тmin
(С)
Tmax
(С)
R
(мм)
R24
(мм)
S
(см)
19 12.08 З 5 50 км н/о +20.2 +10.1 52 +22 +22 комфорт 1017.1 1014.2
20 12.08 З 4 45 км н/о +18.8 +10.6 59 +19 +19 по сезону 1017.7 1014.8
21 12.08 СЗ 3 45 км н/о +17.9 +10.9 64 +18 +18 по сезону 1018.5 1015.5
22 12.08 З 3 45 км н/о +17.6 +11.3 67 +18 +18 тепло 1018.9 1015.9
23 12.08 З 4 45 км н/о +17.1 +10.3 64 +17 +17 тепло 1019.3 1016.3
00 13.08 СЗ 3 50 км н/о +15.4 +9.8 69 +15 +15 по сезону 1019.6 1016.6
01 13.08 СЗ 2 45 км н/о +15.1 +9.2 68 +15 +15 тепло 1019.9 1016.9
02 13.08 СЗ 2 40 км н/о +14.7 +8.8 68 +14 +14 по сезону 1020.1 1017.1
03 13.08 СЗ 2 29 км н/о +13.4 +8.5 72 +13 +13 по сезону 1020.4 1017.4
04 13.08 СЗ 2 28 км н/о +13.1 +8.9 76 +13 +13 по сезону 1020.6 1017.6
05 13.08 СЗ 3 30 км н/о +12.5 +8.6 77 +11 +11 по сезону 1020.8 1017.8
06 13.08 СЗ 2 22 км н/о +12.8 +8.8 77 +12 +12 по сезону 1021.3 1018.2 +12.3
07 13.08 СЗ 2 24 км н/о +13.7 +9.1 74 +13 +13 холодно 1021.6 1018.5
08 13.08 СЗ 1 45 км н/о +15.6 +10.2 70 +16 +16 по сезону 1021.8 1018.8
09 13.08 СВ 2 30 км н/о +17.0 +7.9 55 +17 +17 по сезону 1022.2 1019.2
10 13.08 С 2 50 км н/о +19.1 +7.0 45 +20 +20 прохладно 1022.2 1019.2
11 13.08 СЗ 2 45 км н/о +19.3 +6.0 42 +20 +20 прохладно 1022.1 1019.2
12 13.08 ЮЗ 2 30 км н/о +20.7 +6.3 39 +22 +22 комфорт 1021.7 1018.7
13 13.08 ЮЗ 3 30 км н/о +21.0 +6.1 38 +22 +22 комфорт 1021.4 1018.5
14 13.08 ЮЗ 2 30 км н/о +21.4 +5.6 36 +22 +22 комфорт 1021.4 1018.4
15 13.08 З 4 35 км н/о +22.6 +6.9 36 +23 +23 комфорт 1021.1 1018.1
16 13.08 ЮЗ 2 30 км н/о +22.1 +6.2 36 +23 +23 комфорт 1020.7 1017.8
17 13.08 Ю 2 35 км н/о +21.8 +6.9 38 +23 +23 комфорт 1020.6 1017.6
18 13.08 З 3 45 км н/о +20.9 +7.1 41 +22 +22 комфорт 1020.5 1017.6 +22.7
19 13.08 Ю 4 50 км н/о +19.5 +7.9 47 +20 +20 тепло 1020.7 1017.7
20 13.08 ЮЗ 4 45 км н/о +18.5 +9.1 54 +19 +19 тепло 1020.9 1017.9
21 13.08 ЮЗ 3 45 км н/о +17.8 +9.7 59 +18 +18 по сезону 1021.0 1018.0
22 13.08 ЮЗ 4 35 км н/о +16.7 +9.7 63 +16 +16 тепло 1021.0 1018.0
23 13.08 ЮЗ 2 40 км н/о +14.7 +9.5 71 +14 +14 по сезону 1020.9 1017.8
00 14.08 ЮЗ 2 35 км н/о +13.8 +9.6 76 +14 +14 по сезону 1020.6 1017.6
01 14.08 ЮВ 2 35 км н/о +12.0 +9.2 83 +11 +11 по сезону 1020.4 1017.3
02 14.08 ЮВ 3 35 км н/о +11.7 +9.2 85 +10 +10 прохладно 1020.0 1017.0
03 14.08 ЮВ 2 40 км н/о +11.5 +9.3 86 +11 +11 прохладно 1019.7 1016.6
04 14.08 СВ 1 40 км н/о +11.0 +8.8 86 +12 +12 по сезону 1019.2 1016.1
05 14.08 В 1 30 км н/о +11.2 +9.2 87 +11 +11 по сезону 1019.0 1016.0
06 14.08 СВ 1 28 км н/о +13.6 +10.8 83 +14 +14 по сезону 1019.1 1016.0 +10.7
07 14.08 З 1 19 км н/о +15.5 +10.4 72 +17 +17 по сезону 1019.2 1016.2
08 14.08 Ю 2 30 км н/о +16.8 +11.5 71 +17 +17 по сезону 1019.2 1016.2
09 14.08 Ю 3 40 км н/о +18.8 +12.2 65 +20 +20 тепло 1018.8 1015.9
10 14.08 Ю 3 28 км н/о +19.7 +11.3 58 +21 +21 комфорт 1018.2 1015.2
11 14.08 Ю 5 24 км н/о +21.3 +11.9 55 +23 +23 комфорт 1017.4 1014.5
12 14.08 Ю 5 30 км н/о +23.1 +13.0 53 +26 +26 жарко 1016.8 1013.9
13 14.08 ЮЗ 5 26 км н/о +22.6 +12.4 52 +25 +25 комфорт 1016.2 1013.3
14 14.08 Ю 5 30 км н/о +22.6 +12.4 52 +25 +25 комфорт 1016.0 1013.1
15 14.08 Ю 6 30 км н/о +22.6 +10.6 47 +25 +25 комфорт 1015.7 1012.8
16 14.08 Ю 6 27 км н/о +21.6 +10.6 50 +23 +23 комфорт 1015.6 1012.6
17 14.08 Ю 4 30 км н/о +21.0 +10.5 51 +23 +23 комфорт 1015.2 1012.2
18 14.08 Ю 4 35 км слаб. ливневой дождь н/о +20.5 +10.9 54 +22 +22 комфорт 1014.4 1011.5 +23.5
19 14.08 Ю 4 30 км в посл. час дождь н/о +20.3 +11.1 55 +22 +22 комфорт 1014.8 1011.9
20 14.08 Ю 3 50 км н/о +19.7 +11.8 60 +22 +22 комфорт 1014.8 1011.9
21 14.08 Ю 3 1700 м н/о +18.7 +12.8 69 +20 +20 тепло 1014.9 1011.9
22 14.08 Ю 3 40 км н/о +17.8 +12.5 71 +18 +18 тепло 1014.4 1011.4
23 14.08 Ю 3 29 км н/о +17.3 +12.8 75 +17 +17 тепло 1014.2 1011.3
00 15.08 ЮЗ 2 26 км в посл. час дождь н/о +16.7 +13.1 79 +17 +17 тепло 1014.1 1011.1
01 15.08 СЗ 1 27 км н/о +16.5 +13.3 81 +17 +17 тепло 1013.8 1010.8
02 15.08 С 1 20 км н/о +15.8 +13.4 86 +17 +17 тепло 1012.9 1010.0
03 15.08 З 1 18 км н/о +15.6 +13.6 88 +16 +16 тепло 1013.4 1010.5
04 15.08 З 2 21 км н/о +16.0 +13.4 85 +16 +16 тепло 1013.3 1010.3
05 15.08 СЗ 1 13 км слаб. ливневой дождь н/о +15.8 +14.0 89 +16 +16 тепло 1013.1 1010.1
06 15.08 З 2 15 км в посл. час дождь н/о +16.0 +13.7 86 +16 +16 тепло 1013.1 1010.1 +15.2
07 15.08 З 2 13 км н/о +16.5 +14.1 86 +17 +17 по сезону 1013.8 1010.8
08 15.08 З 4 23 км н/о +17.9 +13.7 76 +18 +18 по сезону 1014.1 1011.2
09 15.08 З 4 35 км н/о +18.1 +13.6 75 +18 +18 по сезону 1014.6 1011.6
10 15.08 З 4 30 км н/о +19.1 +12.7 66 +20 +20 прохладно 1014.8 1011.9
11 15.08 З 4 29 км н/о +19.8 +12.9 64 +21 +21 комфорт 1014.8 1011.9
12 15.08 З 5 35 км н/о +22.5 +13.1 55 +25 +25 комфорт 1015.0 1012.1
13 15.08 З 4 50 км н/о +21.7 +12.0 54 +24 +24 комфорт 1015.4 1012.5
14 15.08 З 5 30 км н/о +23.2 +10.8 46 +25 +25 комфорт 1015.5 1012.6
15 15.08 З 6 24 км н/о +23.8 +10.8 44 +25 +25 комфорт 1015.6 1012.7
16 15.08 З 6 35 км н/о +23.3 +10.5 44 +25 +25 комфорт 1016.0 1013.1
17 15.08 З 5 45 км н/о +22.9 +10.0 44 +25 +25 комфорт 1016.0 1013.1
18 15.08 З 5 45 км н/о +22.0 +8.7 43 +23 +23 комфорт 1016.3 1013.4 +24.2
19 15.08 З 4 40 км н/о +20.2 +8.5 47 +21 +21 комфорт 1017.1 1014.1
20 15.08 З 4 45 км н/о +19.0 +9.1 53 +20 +20 тепло 1018.2 1015.2
21 15.08 З 2 50 км н/о +17.4 +8.5 56 +18 +18 по сезону 1019.0 1016.0
22 15.08 З 3 50 км н/о +16.2 +9.0 62 +16 +16 тепло 1019.3 1016.3
23 15.08 З 3 50 км н/о +15.2 +8.2 63 +15 +15 по сезону 1019.6 1016.6
00 16.08 СЗ 2 27 км н/о +14.3 +8.8 69 +14 +14 по сезону 1019.9 1016.8
01 16.08 СВ 1 35 км н/о +12.5 +8.3 76 +13 +13 по сезону 1020.0 1016.9
02 16.08 З 1 45 км н/о +12.4 +8.6 78 +13 +13 по сезону 1020.0 1017.0
03 16.08 С 1 45 км н/о +12.2 +9.1 81 +13 +13 по сезону 1019.8 1016.7
04 16.08 ЮЗ 2 45 км н/о +11.7 +9.6 87 +11 +11 по сезону 1019.8 1016.7
05 16.08 З 2 40 км н/о +11.9 +9.7 86 +11 +11 по сезону 1020.1 1017.1
06 16.08 СЗ 1 30 км н/о +12.9 +10.2 84 +13 +13 по сезону 1020.3 1017.3 +11.5
07 16.08 СЗ 1 21 км н/о +14.0 +10.9 82 +15 +15 прохладно 1020.4 1017.4
08 16.08 ЮВ 1 26 км н/о +15.7 +11.8 78 +17 +17 по сезону 1020.5 1017.5
09 16.08 Ю 3 30 км н/о +16.8 +11.8 72 +17 +17 по сезону 1020.7 1017.7
10 16.08 Ю 5 28 км н/о +18.0 +13.5 75 +18 +18 холодно 1020.6 1017.6
11 16.08 ЮЗ 5 25 км н/о +19.3 +11.4 60 +20 +20 прохладно 1020.1 1017.1
12 16.08 ЮЗ 6 22 км н/о +21.5 +12.5 57 +24 +24 комфорт 1019.2 1016.2
13 16.08 ЮЗ 5 45 км н/о +20.4 +10.9 54 +22 +22 комфорт 1019.2 1016.2
14 16.08 ЮЗ 6 40 км н/о +22.0 +10.4 48 +24 +24 комфорт 1018.8 1015.9
15 16.08 ЮЗ 6 30 км н/о +22.6 +10.2 45 +24 +24 комфорт 1018.2 1015.2
16 16.08 ЮЗ 6 35 км н/о +22.2 +10.9 49 +24 +24 комфорт 1017.6 1014.7
17 16.08 Ю 6 45 км н/о +21.2 +10.3 50 +23 +23 комфорт 1017.4 1014.4
18 16.08 ЮЗ 7 45 км н/о +20.2 +11.8 58 +22 +22 комфорт 1017.3 1014.4 +23.6
19 16.08 Ю 6 45 км н/о +19.1 +11.5 61 +20 +20 тепло 1016.8 1013.8
20 16.08 Ю 4 45 км н/о +17.7 +11.1 65 +17 +17 по сезону 1017.2 1014.2
21 16.08 Ю 5 45 км н/о +16.8 +12.4 75 +16 +16 по сезону 1016.4 1013.4
22 16.08 Ю 4 35 км н/о +16.7 +12.2 75 +16 +16 тепло 1015.6 1012.6
23 16.08 ЮВ 4 30 км слаб. ливневой дождь н/о +16.7 +12.6 77 +16 +16 тепло 1014.7 1011.8
00 17.08 Ю 3 10 км сильн. ливневой дождь н/о +15.5 +13.5 88 +15 +15 по сезону 1014.0 1011.0 1
01 17.08 Ю 4 35 км в посл. час дождь н/о +15.9 +14.5 91 +15 +15 тепло 1013.1 1010.1
02 17.08 Ю 4 35 км н/о +16.4 +14.9 91 +16 +16 тепло 1012.2 1009.3
03 17.08 Ю 4 11 км ливневой дождь н/о +16.5 +15.4 93 +16 +16 тепло 1011.3 1008.3
04 17.08 Ю 4 30 км в посл. час дождь н/о +16.6 +15.9 96 +16 +16 тепло 1010.8 1007.8
05 17.08 Ю 4 18 км слаб. морось с дождем н/о +17.0 +16.5 97 +17 +17 тепло 1010.5 1007.5
06 17.08 Ю 5 18 км слаб. морось с дождем н/о +17.6 +16.8 95 +17 +17 тепло 1010.2 1007.2 +15.4 4
07 17.08 Ю 4 30 км в посл. час дождь н/о +17.9 +16.9 94 +18 +18 по сезону 1010.3 1007.3
08 17.08 ЮЗ 4 35 км в посл. час дождь н/о +18.3 +17.3 94 +19 +19 тепло 1010.5 1007.5
09 17.08 ЮЗ 6 30 км в посл. час дождь н/о +19.7 +17.8 89 +22 +22 комфорт 1010.5 1007.6
10 17.08 ЮЗ 6 45 км н/о +20.5 +17.4 82 +24 +24 комфорт 1010.7 1007.8
11 17.08 ЮЗ 7 40 км н/о +23.0 +17.4 71 +28 +28 душно 1010.8 1007.9
12 17.08 З 10
{13}
30 км н/о +24.1 +14.7 56 +27 +27 жарко 1010.8 1007.9
13 17.08 З 7 45 км н/о +23.0 +13.7 56 +26 +26 жарко 1010.9 1008.0
14 17.08 ЮЗ 7 35 км н/о +23.4 +14.9 59 +27 +27 душно 1010.8 1007.9
15 17.08 ЮЗ 7 28 км н/о +23.0 +14.8 60 +27 +27 душно 1011.1 1008.2
16 17.08 З 8 40 км н/о +23.8 +11.6 46 +25 +25 комфорт 1011.4 1008.5
17 17.08 З 7 45 км н/о +22.6 +12.7 54 +25 +25 комфорт 1011.4 1008.5
18 17.08 ЮЗ 8 35 км н/о +21.2 +14.4 65 +24 +24 комфорт 1011.5 1008.6 +24.8
19 17.08 ЮЗ 8 21 км н/о +20.0 +14.4 70 +22 +22 комфорт 1011.7 1008.8
20 17.08 ЮЗ 6 18 км н/о +18.6 +14.9 79 +19 +19 тепло 1011.7 1008.8
21 17.08 ЮЗ 6 18 км н/о +17.7 +14.3 80 +17 +17 по сезону 1011.7 1008.7
22 17.08 ЮЗ 5 16 км н/о +17.0 +14.3 84 +16 +16 тепло 1011.9 1008.9
23 17.08 ЮЗ 4 14 км н/о +16.5 +14.0 85 +16 +16 тепло 1011.8 1008.8
00 18.08 ЮЗ 5 14 км н/о +16.2 +13.9 86 +15 +15 по сезону 1011.6 1008.6
01 18.08 ЮЗ 5 13 км н/о +15.8 +13.5 86 +15 +15 тепло 1011.0 1008.0
02 18.08 Ю 4 12 км н/о +15.5 +13.7 89 +15 +15 тепло 1011.1 1008.1
03 18.08 Ю 4 13 км н/о +15.9 +14.0 88 +15 +15 по сезону 1010.1 1007.1
04 18.08 Ю 3 7000 м ливневой дождь н/о +15.9 +14.7 93 +16 +16 тепло 1009.8 1006.8
05 18.08 ЮЗ 5 6000 м дождь н/о +15.5 +14.4 93 +14 +14 по сезону 1009.7 1006.7
06 18.08 ЮЗ 6 21 км в посл. час дождь н/о +15.0 +13.2 89 +13 +13 по сезону 1010.1 1007.1 +15.0 4
07 18.08 ЮЗ 6 30 км н/о +15.7 +13.9 89 +14 +14 прохладно 1010.1 1007.1
08 18.08 ЮЗ 7 21 км н/о +17.0 +13.7 81 +16 +16 по сезону 1010.7 1007.8
09 18.08 З 7 29 км н/о +18.0 +11.7 67 +17 +17 по сезону 1011.1 1008.1
10 18.08 З 8 30 км н/о +19.2 +11.8 62 +20 +20 прохладно 1011.3 1008.4
11 18.08 З 6 45 км н/о +18.6 +9.5 55 +19 +19 прохладно 1010.8 1007.9
12 18.08 ЮЗ 8 30 км в посл. час дождь н/о +19.2 +10.0 55 +19 +19 прохладно 1010.6 1007.6
13 18.08 З 4 35 км слаб. ливневой дождь н/о +15.2 +12.5 84 +14 +14 очень
холодно
1010.9 1007.9
14 18.08 З 6 17 км слаб. ливневой дождь н/о +15.6 +11.5 77 +14 +14 очень
холодно
1011.3 1008.3
15 18.08 ЮЗ 8
{14}
15 км слаб. ливневой дождь н/о +14.0 +10.7 80 +12 +12 очень
холодно
1011.8 1008.8
16 18.08 З 7
{15}
26 км слаб. ливневой дождь н/о +14.7 +10.9 78 +13 +13 очень
холодно
1011.4 1008.4
17 18.08 ЮЗ 8 35 км в посл. час дождь н/о +16.4 +10.0 66 +15 +15 холодно 1011.6 1008.6
18 18.08 ЮЗ 6 40 км н/о +15.7 +10.8 73 +14 +14 холодно 1012.0 1009.0 +20.3 7
19 18.08 ЮЗ 6 50 км н/о +15.3 +10.0 71 +14 +14 прохладно 1012.2 1009.2
20 18.08 ЮЗ 5 45 км н/о +15.3 +10.3 72 +14 +14 прохладно 1012.1 1009.1
21 18.08 ЮЗ 6 35 км н/о +15.0 +8.9 67 +13 +13 прохладно 1011.9 1008.9
22 18.08 ЮЗ 8 27 км н/о +14.5 +9.5 72 +12 +12 по сезону 1011.6 1008.6
23 18.08 ЮЗ 8 23 км н/о +14.3 +9.9 75 +12 +12 по сезону 1011.8 1008.8
00 19.08 З 9
{13}
22 км н/о +14.5 +10.9 79 +12 +12 прохладно 1012.4 1009.5
01 19.08 З 7
{13}
15 км н/о +13.6 +11.3 86 +11 +11 по сезону 1012.6 1009.5
02 19.08 З 5 18 км н/о +13.7 +11.7 88 +12 +12 по сезону 1013.2 1010.2
03 19.08 З 5 16 км н/о +13.1 +11.5 90 +11 +11 прохладно 1013.6 1010.6
04 19.08 З 4 16 км н/о +13.1 +11.7 91 +11 +11 по сезону 1014.2 1011.1
05 19.08 З 4 18 км н/о +12.9 +11.4 91 +11 +11 по сезону 1015.0 1012.0
06 19.08 З 5 26 км н/о +13.0 +11.3 89 +11 +11 прохладно 1015.6 1012.5 +12.7
07 19.08 З 5 22 км н/о +14.2 +11.5 84 +12 +12 холодно 1016.3 1013.3
08 19.08 З 6 35 км н/о +15.8 +11.5 76 +14 +14 прохладно 1017.0 1014.0
09 19.08 З 6 26 км н/о +16.9 +10.9 68 +16 +16 по сезону 1017.2 1014.2
10 19.08 З 8 35 км н/о +17.7 +10.8 64 +17 +17 холодно 1017.3 1014.4
11 19.08 З 8 45 км н/о +17.7 +9.1 57 +17 +17 холодно 1017.4 1014.4
12 19.08 З 8 24 км н/о +19.6 +9.7 53 +20 +20 по сезону 1017.4 1014.5
13 19.08 З 8
{13}
40 км н/о +18.7 +8.2 50 +18 +18 прохладно 1017.7 1014.7
14 19.08 З 7
{15}
35 км н/о +20.2 +9.7 51 +21 +21 комфорт 1017.9 1014.9
15 19.08 З 9
{14}
27 км н/о +19.5 +7.5 46 +19 +19 по сезону 1018.0 1015.1
16 19.08 З 9
{14}
40 км н/о +19.6 +6.7 43 +20 +20 тепло 1018.4 1015.5
17 19.08 З 8
{15}
24 км н/о +19.1 +7.4 47 +19 +19 тепло 1018.9 1015.9

 

Местоположение метеостанции London (Великобритания): широта 51.48 долгота -0.45 высота над уровнем моря 25 м.

В архиве по умолчанию представлена погода в London за последнюю неделю. Архивные данные за месяц целиком и за предыдущие месяцы, начиная с января 2011 года, Вы можете получить, выбрав интересующий диапазон дат из раскрывающегося списка и нажав кнопку "Ввод!".

Внимание! Время в таблицах - всемирное. Для получения местного времени необходимо прибавить поправку, которая в London равна 0 ч.

Смотрите также архив погоды в соседних городах и на ближайших метеорологических станциях:

Погода в Northolt (Великобритания) (8 км)
Погода в London, St James Park (Великобритания) (23 км)
Погода в Charlwood (Великобритания) (28 км)
Погода в Farnborough (Великобритания) (31 км)
Погода в Kenley Airfield (Великобритания) (33 км)
Погода в High Wycombe Hqstc (Великобритания) (33 км)
Погода в Odiham (Великобритания) (44 км)
Погода в Benson (Великобритания) (46 км)
Погода в Gravesend-Broadness (Великобритания) (52 км)
Погода в Rothamsted (Великобритания) (66 км)

Пояснения к столбцам:

Ветер - указаны скорость ветра в м/с - средняя за 10 мин, порывы в срок и между сроками (в фигурных скобках) и направление, откуда дует ветер: С - северный, СВ - северо-восточный, В - восточный, ЮВ - юго-восточный, Ю - южный, ЮЗ - юго-западный, З - западный, СЗ - северо-западный.
Видимость - горизонтальная дальность видимости в метрах или километрах. При видимости от 1 до 10 км при отсутствии осадков обычно наблюдается дымка, при ухудшении видимости до 1 км и менее - туман. В сухую погоду видимость может ухудшаться дымом, пылью или мглою.
Явления - указаны атмосферные явления, наблюдавшиеся в срок или в последний час перед сроком; фигурными скобками обозначены явления, наблюдавшиеся между сроками (за 1-3 часа до срока); квадратными скобками обозначены град или гололедные отложения с указанием их диаметра в мм.
Облачность - указаны через наклонную черту общая и нижняя облачность в баллах и высота нижней границы облаков в метрах; квадратными скобками обозначены формы облаков: Ci - перистые, Cs - перисто-слоистые, Cc - перисто-кучевые, Ac - высококучевые, As - высокослоистые, Sc - слоисто-кучевые, Ns - слоисто-дождевые, Cu - кучевые, Cb - кучево-дождевые. Подробнее классификацию облаков см. в Атласе облаков (PDF).
T - Температура воздуха - температура, измеренная на высоте 2 м над землей.
Td - Температура точки росы - температура, при понижении до которой содержащийся в воздухе водяной пар достигнет насыщения.
f - Относительная влажность воздуха - влажноcть воздуха, измеренная на высоте 2 м над землей.
Te - Эффективная температура - температура, которую ощущает одетый по сезону человек в тени. Характеристика душности погоды. При расчете учитывается влияние влажности воздуха и скорости ветра на теплоощущения человека.
Tes - Эффективная температура на солнце - температура, которую ощущает человек, с поправкой на солнечный нагрев. Характеристика знойности погоды. Зависит от высоты солнца над горизонтом, облачности и скорости ветра. Ночью, в пасмурную погоду, а также при ветре 12 м/с и более поправка равна нулю.
P - Атмосферное давление - приведенное к уровню моря атмосферное давление.
Po - Атмосферное давление - измеренное на уровне метеостанции атмосферное давление.
Tmin - Минимальная температура - минимум температуры воздуха на высоте 2 м над землей.
Tmax - Максимальная температура - максимум температуры воздуха на высоте 2 м над землей.
R - Количество осадков - Количество выпавших осадков за период времени, мм. При наведении курсора мыши на число - период времени, за который выпало указанное количество осадков.
R24 - Количество осадков - Количество выпавших осадков за 24 часа, мм.
S - Снежный покров - Высота снежного покрова, см. При наведении курсора мыши на число - состояние снежного покрова и степень покрытия местности в баллах.